COSMOS 1275 DEB, 42191

Orbit data source: Space-Track

COSMOS 1275 DEB, 42191 is space debris in LEO originally from a launch on Thu, 04 Jun 1981 UTC launched from the Plesetsk Missile And Space Complex (PKMTR). Debris objects in space refer to the collection of defunct objects orbiting the Earth. Examples of debris include non-operational satellites, rocket bodies, and fragments generated from explosions, collisions, or faulty payload assembly.

Loading next visibility...
Identifier
42191, 1981-053TF
Orbit
LEO
Country
Flag of CISCIS
Related business
Manufacturer
Unknown
Mission
Spacecraft
Bus & Motor
Unknown
Mass
Unknown
Launch date (UTC)
1981-06-04 (45 years ago)
Launch vehicle
Unknown
Launch site
Plesetsk Missile And Space Complex (PKMTR)
Object type
Payload
Rocket body
Debris
Shape & HBR
Unknown shape, 0.1 m
Radar Cross Section
Small (<0.1 m²)

Expand to show TLE details & history
Last TLE update: 7 hours ago

TLE from 7 hours ago
0 COSMOS 1275 DEB
1 42191U 81053TF  26100.51116611  .00001931  00000-0  10709-2 0  9998
2 42191  82.8236 180.3213 0040950 159.2111 201.0742 14.10333767633636
Epoch: 2026-04-10T12:16Z
TLE epoch observation values (Epoch: 2026-04-10T12:16:04.751Z)
Latitude
-0.00003°
Longitude
157.55772°
Altitude
888.848 km
Speed
7.394 km/s
True Right ascension
12h 01m 17s
True Declination
0° 00' 00"
Sunlit
Object was in full shadow at epoch
Visualization orbit readout
Latitude
Unknown
Longitude
Unknown
Altitude
Unknown
Speed
Unknown
Apparent Right ascension
Unknown
Apparent Declination
Unknown
Sunlit
N/A
Visualization observer readout
Local Sidereal Time
01:46:36
Azimuth
Unknown
Elevation
Unknown
Doppler factor
Unknown
Orbital elements
Apogee altitude
884.955 km
Perigee altitude
825.713 km
Semi-major axis
7,233.471 km
Eccentricity
0.0041
Inclination
82.8236°
RAAN
180.3213°
Arg. of periapsis
159.2111°
True anomaly
200.90627°
Mean anomaly
201.0742°
Eccentric anomaly
200.99016°
Mean motion
3.52795 °/min
Orbital period
102.04 mins
BSTAR
0.0010709
Loading maneuver chart data...
Computing Atmospheric mass density...

Documentation

Showing up to 5 results
|